contact:dominique.lefevre@mio.osupytheas.fr, maurice.libes@osupytheas.fr, didier.mallarino@osupytheas.fr
Project:EMSO http://www.emso-fr.org/EMSO-France
Depth: 2436.0 m
Title:EMSO Ligure Ouest : Data MII capteur AQUADOPP
Date,Latitude,Longitude,X_East,Y_North,Z_Up,Amplitude_X,Amplitude_Y,Amplitude_Z,Batterie,SoundSpeed,Heading,Pitch,Roll,Pressure,TIS,Speed,Direction
, degrees North, degrees East, m.s-1, m.s-1,m.s-1, 1, 1, 1, Volt, m.s-1, degree, degree, degree, dbar, degree_C, m.s-1, degree
2022-04-09T00:04:03,42.805,6.029,0.016,0.004,-0.009,102.0,103.0,101.0,13.4,1505.2,330.6,-0.8,1.8,2470.912,13.28,0.016,76.0
2022-04-09T00:07:03,42.805,6.029,0.018,-0.002,-0.018,101.0,103.0,102.0,13.4,1505.2,321.7,-0.8,1.9,2470.853,13.28,0.018,96.3
2022-04-09T00:10:03,42.805,6.029,0.014,-0.011,-0.003,102.0,102.0,101.0,13.4,1505.2,330.5,-0.8,1.8,2470.843,13.28,0.017,128.2
2022-04-09T00:13:03,42.805,6.029,0.028,-0.008,0.033,103.0,101.0,100.0,13.3,1505.2,326.2,-0.7,1.8,2470.874,13.28,0.029,105.9
2022-04-09T00:16:03,42.805,6.029,0.023,-0.027,0.012,102.0,102.0,101.0,13.4,1505.2,327.2,-0.8,1.9,2470.854,13.28,0.035,139.6
2022-04-09T00:19:03,42.805,6.029,0.013,-0.013,-0.006,103.0,102.0,101.0,13.3,1505.2,327.7,-0.8,1.8,2470.826,13.28,0.018,135.0
2022-04-09T00:22:03,42.805,6.029,0.039,-0.017,0.013,102.0,102.0,102.0,13.3,1505.2,330.2,-0.8,1.8,2470.843,13.28,0.042,113.5
2022-04-09T00:25:03,42.805,6.029,0.014,-0.007,-0.013,102.0,102.0,102.0,13.3,1505.2,325.0,-0.8,1.8,2470.859,13.28,0.015,116.6
2022-04-09T00:28:03,42.805,6.029,0.015,-0.012,0.002,103.0,105.0,101.0,13.4,1505.2,325.3,-0.8,1.8,2470.83,13.28,0.019,128.7
2022-04-09T00:31:03,42.805,6.029,0.026,-0.005,0.0,103.0,101.0,101.0,13.4,1505.2,327.2,-0.8,1.8,2470.887,13.28,0.026,100.9
2022-04-09T00:34:03,42.805,6.029,0.005,-0.025,0.003,101.0,104.0,101.0,13.3,1505.2,324.0,-0.8,1.8,2470.846,13.28,0.025,168.7
2022-04-09T00:37:03,42.805,6.029,0.024,-0.02,-0.016,103.0,103.0,100.0,13.4,1505.2,330.6,-0.8,1.8,2470.877,13.28,0.031,129.8
2022-04-09T00:40:03,42.805,6.029,0.022,-0.025,0.008,101.0,103.0,101.0,13.4,1505.2,328.0,-0.8,1.8,2470.87,13.28,0.033,138.7
2022-04-09T00:43:03,42.805,6.029,0.02,-0.021,-0.022,102.0,102.0,101.0,13.4,1505.2,326.7,-0.7,1.8,2470.819,13.28,0.028,136.4
2022-04-09T00:46:03,42.805,6.029,0.019,-0.013,-0.001,103.0,102.0,101.0,13.4,1505.2,329.6,-0.7,1.8,2470.863,13.28,0.023,124.4
2022-04-09T00:49:03,42.805,6.029,-0.007,-0.006,-0.029,102.0,101.0,101.0,13.3,1505.2,326.7,-0.8,1.8,2470.827,13.28,0.009,229.4
2022-04-09T00:52:03,42.805,6.029,0.021,0.01,0.048,103.0,102.0,101.0,13.4,1505.2,327.0,-0.7,1.8,2470.849,13.28,0.023,64.5
2022-04-09T00:55:03,42.805,6.029,0.048,-0.008,-0.013,103.0,101.0,102.0,13.4,1505.2,324.2,-0.7,1.9,2470.834,13.28,0.048,99.5
2022-04-09T00:58:03,42.805,6.029,0.022,-0.009,-0.007,100.0,102.0,102.0,13.4,1505.2,331.0,-0.8,1.8,2470.88,13.28,0.023,112.2
2022-04-09T01:04:03,42.805,6.029,0.025,-0.028,-0.01,104.0,103.0,103.0,13.3,1505.2,327.2,-0.7,1.8,2470.896,13.28,0.037,138.2
2022-04-09T01:07:03,42.805,6.029,0.017,-0.019,0.026,101.0,102.0,102.0,13.4,1505.2,330.7,-0.7,1.8,2470.888,13.28,0.025,138.2
2022-04-09T01:10:02,42.805,6.029,0.033,-0.01,0.0,101.0,103.0,101.0,13.4,1505.2,331.5,-0.8,1.9,2470.872,13.28,0.034,106.9
2022-04-09T01:13:03,42.805,6.029,0.036,-0.004,0.035,102.0,100.0,101.0,13.4,1505.2,328.2,-0.7,1.9,2470.862,13.28,0.036,96.3
2022-04-09T01:16:03,42.805,6.029,0.04,-0.027,-0.013,101.0,103.0,101.0,13.4,1505.2,325.6,-0.8,1.8,2470.928,13.28,0.048,124.0
2022-04-09T01:19:03,42.805,6.029,0.014,-0.023,-0.026,101.0,102.0,101.0,13.4,1505.2,322.7,-0.7,1.8,2470.9,13.28,0.026,148.7
2022-04-09T01:22:03,42.805,6.029,0.03,0.0,0.03,102.0,100.0,100.0,13.4,1505.2,321.9,-0.8,1.8,2470.854,13.28,0.03,90.0
2022-04-09T01:25:03,42.805,6.029,0.01,-0.011,-0.004,103.0,103.0,100.0,13.4,1505.2,325.9,-0.7,1.8,2470.831,13.28,0.014,137.7
2022-04-09T01:28:03,42.805,6.029,0.011,-0.003,0.0,102.0,102.0,100.0,13.4,1505.2,325.7,-0.7,1.8,2470.867,13.28,0.011,105.3
2022-04-09T01:31:03,42.805,6.029,0.027,-0.024,-0.024,102.0,102.0,99.0,13.4,1505.2,326.3,-0.7,1.8,2470.849,13.28,0.036,131.6
2022-04-09T01:34:03,42.805,6.029,0.027,-0.022,0.042,101.0,101.0,100.0,13.4,1505.2,327.6,-0.7,1.8,2470.87,13.28,0.034,129.2
2022-04-09T01:37:03,42.805,6.029,0.007,-0.005,0.022,101.0,102.0,101.0,13.3,1505.2,321.6,-0.8,1.8,2470.805,13.28,0.008,125.5
2022-04-09T01:40:03,42.805,6.029,0.004,-0.021,-0.016,101.0,103.0,98.0,13.4,1505.2,330.1,-0.8,1.8,2470.836,13.28,0.021,169.2
2022-04-09T01:43:03,42.805,6.029,0.017,-0.034,0.0,100.0,101.0,101.0,13.4,1505.2,331.1,-0.7,1.8,2470.822,13.28,0.038,153.4
2022-04-09T01:46:03,42.805,6.029,0.024,-0.037,-0.019,101.0,101.0,101.0,13.4,1505.2,325.2,-0.7,1.8,2470.809,13.28,0.044,147.0
2022-04-09T01:49:03,42.805,6.029,0.023,-0.007,0.003,101.0,103.0,100.0,13.4,1505.2,322.1,-0.8,1.8,2470.866,13.28,0.024,106.9
2022-04-09T01:52:03,42.805,6.029,0.013,-0.008,-0.003,102.0,101.0,100.0,13.3,1505.2,329.2,-0.8,1.8,2470.853,13.28,0.015,121.6
2022-04-09T01:55:03,42.805,6.029,-0.006,-0.007,0.008,101.0,102.0,100.0,13.4,1505.2,328.6,-0.8,1.8,2470.866,13.28,0.009,220.6
2022-04-09T01:58:03,42.805,6.029,0.022,-0.022,-0.005,102.0,101.0,101.0,13.4,1505.2,323.6,-0.7,1.8,2470.834,13.28,0.031,135.0
2022-04-09T02:04:03,42.805,6.029,0.04,-0.013,0.035,101.0,101.0,101.0,13.4,1505.2,331.5,-0.8,1.8,2470.867,13.28,0.042,108.0
2022-04-09T02:07:03,42.805,6.029,0.018,-0.029,-0.006,102.0,100.0,101.0,13.3,1505.2,329.1,-0.8,1.8,2470.86,13.28,0.034,148.2
2022-04-09T02:10:03,42.805,6.029,0.026,-0.028,-0.002,101.0,101.0,100.0,13.4,1505.2,325.7,-0.8,1.8,2470.848,13.28,0.038,137.1
2022-04-09T02:13:03,42.805,6.029,0.04,-0.012,0.014,102.0,101.0,100.0,13.3,1505.2,328.2,-0.8,1.9,2470.86,13.28,0.041,106.7
2022-04-09T02:16:03,42.805,6.029,0.026,-0.021,0.004,102.0,101.0,100.0,13.4,1505.2,331.8,-0.8,1.8,2470.855,13.28,0.033,128.9
2022-04-09T02:19:03,42.805,6.029,0.019,-0.022,-0.016,100.0,102.0,100.0,13.3,1505.2,325.7,-0.8,1.8,2470.888,13.28,0.029,139.2
2022-04-09T02:22:03,42.805,6.029,0.001,-0.013,0.006,100.0,101.0,100.0,13.3,1505.2,326.7,-0.7,1.9,2470.867,13.28,0.013,175.6
2022-04-09T02:25:03,42.805,6.029,0.037,-0.023,-0.017,101.0,101.0,100.0,13.4,1505.2,330.3,-0.8,1.8,2470.847,13.28,0.043,121.9
2022-04-09T02:28:03,42.805,6.029,0.008,0.001,0.011,102.0,100.0,100.0,13.4,1505.2,323.4,-0.8,1.8,2470.827,13.28,0.008,82.9
2022-04-09T02:31:03,42.805,6.029,0.002,-0.009,0.0,103.0,103.0,99.0,13.3,1505.2,331.6,-0.7,1.8,2470.884,13.28,0.009,167.5
2022-04-09T02:34:03,42.805,6.029,0.012,-0.012,-0.016,101.0,101.0,101.0,13.3,1505.2,330.4,-0.7,1.8,2470.858,13.28,0.016,135.0
2022-04-09T02:37:03,42.805,6.029,0.05,-0.009,-0.002,102.0,103.0,100.0,13.3,1505.2,327.4,-0.8,1.8,2470.849,13.28,0.05,100.2
2022-04-09T02:40:03,42.805,6.029,0.008,-0.005,-0.008,100.0,103.0,100.0,13.4,1505.2,323.4,-0.8,1.8,2470.904,13.28,0.009,122.0
2022-04-09T02:43:03,42.805,6.029,0.016,-0.007,0.016,101.0,101.0,102.0,13.4,1505.2,331.6,-0.7,1.8,2470.822,13.28,0.017,113.6
2022-04-09T02:46:03,42.805,6.029,0.026,-0.012,0.006,104.0,101.0,100.0,13.4,1505.2,325.2,-0.7,1.8,2470.834,13.28,0.028,114.8
2022-04-09T02:49:03,42.805,6.029,0.01,-0.029,-0.008,102.0,102.0,100.0,13.3,1505.2,330.0,-0.8,1.8,2470.838,13.28,0.03,161.0
2022-04-09T02:52:03,42.805,6.029,0.017,-0.013,-0.024,101.0,103.0,100.0,13.3,1505.2,326.4,-0.7,1.9,2470.867,13.28,0.021,127.4
2022-04-09T02:55:03,42.805,6.029,0.008,0.015,0.038,101.0,102.0,100.0,13.3,1505.2,330.8,-0.8,1.8,2470.879,13.28,0.017,28.1
2022-04-09T02:58:03,42.805,6.029,0.008,-0.009,-0.015,102.0,102.0,100.0,13.4,1505.2,330.5,-0.8,1.8,2470.859,13.28,0.012,138.4
2022-04-09T03:04:03,42.805,6.029,0.017,-0.031,-0.014,100.0,102.0,101.0,13.4,1505.2,327.8,-0.8,1.8,2470.867,13.28,0.035,151.3
2022-04-09T03:07:03,42.805,6.029,0.026,-0.01,0.005,103.0,103.0,100.0,13.3,1505.2,326.1,-0.8,1.8,2470.857,13.28,0.027,111.0
2022-04-09T03:10:03,42.805,6.029,0.019,-0.007,0.01,101.0,102.0,100.0,13.4,1505.2,322.4,-0.8,1.8,2470.838,13.28,0.02,110.2
2022-04-09T03:13:03,42.805,6.029,0.045,-0.044,-0.019,101.0,105.0,101.0,13.3,1505.2,332.7,-0.8,1.8,2470.866,13.28,0.062,134.4
2022-04-09T03:16:03,42.805,6.029,0.021,-0.015,0.011,101.0,104.0,100.0,13.4,1505.2,327.6,-0.7,1.8,2470.857,13.28,0.025,125.5
2022-04-09T03:19:03,42.805,6.029,-0.001,-0.039,-0.009,100.0,103.0,100.0,13.4,1505.2,331.1,-0.7,1.8,2470.879,13.28,0.039,181.5
2022-04-09T03:22:03,42.805,6.029,0.037,-0.019,0.017,101.0,102.0,100.0,13.4,1505.2,324.1,-0.8,1.8,2470.852,13.28,0.041,117.2
2022-04-09T03:25:03,42.805,6.029,0.023,-0.004,0.038,102.0,103.0,100.0,13.4,1505.2,327.7,-0.7,1.8,2470.865,13.28,0.023,99.9
2022-04-09T03:28:03,42.805,6.029,0.014,-0.003,0.011,102.0,101.0,101.0,13.4,1505.2,325.1,-0.7,1.8,2470.829,13.28,0.014,102.1
2022-04-09T03:31:03,42.805,6.029,0.038,-0.015,0.026,102.0,102.0,101.0,13.4,1505.2,325.8,-0.8,1.8,2470.879,13.28,0.04,111.5
2022-04-09T03:34:03,42.805,6.029,0.026,-0.014,-0.01,101.0,103.0,100.0,13.3,1505.2,323.6,-0.8,1.8,2470.878,13.28,0.029,118.3
2022-04-09T03:37:03,42.805,6.029,0.01,-0.019,-0.009,101.0,102.0,100.0,13.4,1505.2,329.6,-0.8,1.8,2470.858,13.28,0.021,152.2
2022-04-09T03:40:03,42.805,6.029,0.005,-0.006,0.011,101.0,103.0,100.0,13.3,1505.2,329.0,-0.8,1.8,2470.859,13.28,0.007,140.2
2022-04-09T03:43:03,42.805,6.029,-0.013,-0.02,-0.015,101.0,101.0,101.0,13.3,1505.2,328.9,-0.8,1.8,2470.811,13.28,0.023,213.0
2022-04-09T03:46:03,42.805,6.029,0.013,-0.004,-0.009,101.0,102.0,100.0,13.4,1505.2,324.1,-0.8,1.8,2470.833,13.28,0.013,107.1
2022-04-09T03:49:03,42.805,6.029,0.0,-0.033,-0.011,101.0,102.0,101.0,13.3,1505.2,326.8,-0.7,1.8,2470.807,13.28,0.033,180.0
2022-04-09T03:52:03,42.805,6.029,0.027,-0.025,-0.053,102.0,102.0,100.0,13.4,1505.2,331.9,-0.8,1.8,2470.836,13.28,0.036,132.8
2022-04-09T03:55:03,42.805,6.029,0.046,-0.006,0.026,101.0,103.0,100.0,13.4,1505.2,323.0,-0.8,1.8,2470.817,13.28,0.046,97.4
2022-04-09T03:58:03,42.805,6.029,0.024,0.003,0.022,101.0,101.0,100.0,13.3,1505.2,327.0,-0.8,1.8,2470.865,13.28,0.024,82.9
2022-04-09T04:04:03,42.805,6.029,0.003,-0.013,-0.015,102.0,102.0,100.0,13.4,1505.2,326.1,-0.8,1.8,2470.866,13.28,0.013,167.0
2022-04-09T04:07:03,42.805,6.029,0.02,0.003,0.046,101.0,101.0,101.0,13.3,1505.2,322.4,-0.8,1.8,2470.833,13.28,0.02,81.5
2022-04-09T04:10:03,42.805,6.029,0.04,-0.035,-0.027,101.0,103.0,101.0,13.4,1505.2,326.8,-0.8,1.8,2470.888,13.28,0.053,131.2
2022-04-09T04:13:03,42.805,6.029,0.021,-0.015,0.048,103.0,103.0,101.0,13.4,1505.2,322.8,-0.7,1.8,2470.848,13.28,0.025,125.5
2022-04-09T04:16:03,42.805,6.029,0.014,0.0,0.019,102.0,102.0,101.0,13.4,1505.2,326.6,-0.7,1.8,2470.849,13.28,0.014,90.0
2022-04-09T04:19:03,42.805,6.029,0.005,0.011,0.021,101.0,103.0,100.0,13.4,1505.2,325.8,-0.8,1.8,2470.85,13.28,0.012,24.4
2022-04-09T04:22:03,42.805,6.029,0.017,-0.008,0.019,103.0,101.0,100.0,13.4,1505.2,328.9,-0.8,1.9,2470.847,13.28,0.018,115.2
2022-04-09T04:25:03,42.805,6.029,0.036,0.008,0.023,102.0,102.0,101.0,13.4,1505.2,326.8,-0.7,1.8,2470.802,13.28,0.036,77.5
2022-04-09T04:28:03,42.805,6.029,0.024,0.002,0.031,101.0,103.0,100.0,13.4,1505.2,330.4,-0.8,1.8,2470.858,13.28,0.024,85.2
2022-04-09T04:31:03,42.805,6.029,0.021,-0.026,-0.023,103.0,103.0,100.0,13.3,1505.2,323.1,-0.7,1.8,2470.848,13.28,0.033,141.1
2022-04-09T04:34:03,42.805,6.029,0.019,-0.01,0.003,101.0,102.0,102.0,13.3,1505.2,327.7,-0.7,1.8,2470.847,13.28,0.021,117.8
2022-04-09T04:37:03,42.805,6.029,0.023,-0.004,0.014,103.0,103.0,100.0,13.4,1505.2,321.9,-0.7,1.8,2470.818,13.28,0.023,99.9
2022-04-09T04:40:03,42.805,6.029,0.036,0.004,0.011,102.0,103.0,100.0,13.3,1505.2,330.9,-0.7,1.8,2470.817,13.28,0.036,83.7
2022-04-09T04:43:03,42.805,6.029,0.03,-0.004,0.017,103.0,102.0,100.0,13.4,1505.2,329.8,-0.8,1.8,2470.797,13.28,0.03,97.6
2022-04-09T04:46:03,42.805,6.029,0.015,0.0,-0.003,103.0,102.0,100.0,13.4,1505.2,325.7,-0.7,1.8,2470.821,13.28,0.015,90.0
2022-04-09T04:49:03,42.805,6.029,0.026,-0.01,-0.021,102.0,101.0,101.0,13.4,1505.2,331.4,-0.8,1.8,2470.81,13.28,0.027,111.0
2022-04-09T04:52:03,42.805,6.029,0.024,-0.01,0.001,102.0,102.0,100.0,13.4,1505.2,324.6,-0.8,1.8,2470.846,13.28,0.026,112.6
2022-04-09T04:55:03,42.805,6.029,0.024,-0.025,0.0,102.0,103.0,100.0,13.4,1505.2,331.9,-0.7,1.8,2470.862,13.28,0.034,136.2
2022-04-09T04:58:03,42.805,6.029,0.011,-0.014,-0.006,103.0,103.0,100.0,13.4,1505.2,329.3,-0.7,1.8,2470.804,13.28,0.017,141.8
2022-04-09T05:04:03,42.805,6.029,0.021,-0.021,0.016,103.0,100.0,100.0,13.4,1505.2,328.4,-0.8,1.8,2470.814,13.28,0.029,135.0
2022-04-09T05:07:03,42.805,6.029,0.046,-0.027,0.001,103.0,103.0,100.0,13.4,1505.2,324.6,-0.7,1.8,2470.84,13.28,0.053,120.4
2022-04-09T05:10:03,42.805,6.029,0.021,-0.004,-0.004,101.0,102.0,100.0,13.3,1505.2,322.9,-0.8,1.8,2470.832,13.28,0.021,100.8
2022-04-09T05:13:03,42.805,6.029,0.023,-0.006,-0.015,101.0,103.0,101.0,13.4,1505.2,323.1,-0.8,1.8,2470.826,13.28,0.023,104.6
2022-04-09T05:16:03,42.805,6.029,0.023,-0.004,0.004,101.0,103.0,100.0,13.4,1505.2,330.8,-0.7,1.8,2470.807,13.28,0.023,99.9
2022-04-09T05:19:03,42.805,6.029,0.042,-0.023,-0.012,102.0,101.0,101.0,13.3,1505.2,322.6,-0.8,1.8,2470.807,13.28,0.047,118.7
2022-04-09T05:22:03,42.805,6.029,0.014,-0.017,-0.009,102.0,102.0,101.0,13.4,1505.2,328.1,-0.7,1.8,2470.859,13.28,0.022,140.5
2022-04-09T05:25:03,42.805,6.029,0.035,-0.024,-0.01,102.0,103.0,101.0,13.4,1505.2,325.6,-0.8,1.8,2470.81,13.28,0.042,124.4
2022-04-09T05:28:03,42.805,6.029,0.026,0.008,-0.015,103.0,102.0,100.0,13.4,1505.2,328.6,-0.8,1.8,2470.837,13.28,0.027,72.9
2022-04-09T05:31:03,42.805,6.029,0.035,-0.009,0.035,103.0,103.0,100.0,13.4,1505.2,328.0,-0.8,1.8,2470.812,13.28,0.036,104.4
2022-04-09T05:34:03,42.805,6.029,0.021,0.001,0.01,103.0,103.0,100.0,13.4,1505.2,322.6,-0.8,1.8,2470.844,13.28,0.021,87.3
2022-04-09T05:37:03,42.805,6.029,0.023,-0.019,0.018,102.0,104.0,100.0,13.4,1505.2,332.9,-0.7,1.8,2470.844,13.28,0.029,129.6
2022-04-09T05:40:03,42.805,6.029,0.047,0.004,0.034,102.0,103.0,101.0,13.3,1505.2,325.9,-0.7,1.8,2470.8,13.28,0.047,85.1
2022-04-09T05:43:03,42.805,6.029,0.018,-0.003,0.024,102.0,104.0,100.0,13.4,1505.2,325.6,-0.7,1.8,2470.799,13.28,0.018,99.5
2022-04-09T05:46:03,42.805,6.029,0.036,-0.016,0.036,102.0,105.0,100.0,13.3,1505.2,325.3,-0.8,1.8,2470.827,13.28,0.039,114.0
2022-04-09T05:49:03,42.805,6.029,0.024,-0.014,-0.004,101.0,102.0,100.0,13.4,1505.2,325.7,-0.8,1.8,2470.804,13.28,0.027,120.3
2022-04-09T05:52:03,42.805,6.029,0.031,-0.011,0.011,101.0,103.0,101.0,13.4,1505.2,327.4,-0.7,1.8,2470.773,13.28,0.032,109.5
2022-04-09T05:55:03,42.805,6.029,0.032,-0.008,-0.002,102.0,103.0,100.0,13.3,1505.2,323.9,-0.7,1.8,2470.817,13.28,0.032,104.0
2022-04-09T05:58:03,42.805,6.029,0.025,-0.009,0.047,101.0,102.0,101.0,13.4,1505.2,325.4,-0.7,1.8,2470.807,13.28,0.026,109.8
2022-04-09T06:04:03,42.805,6.029,0.012,0.005,0.021,102.0,102.0,100.0,13.4,1505.2,330.3,-0.7,1.8,2470.833,13.28,0.013,67.4
2022-04-09T06:07:03,42.805,6.029,0.017,-0.026,-0.014,100.0,103.0,101.0,13.4,1505.2,326.0,-0.8,1.8,2470.838,13.28,0.031,146.8
2022-04-09T06:10:03,42.805,6.029,0.042,-0.006,-0.009,101.0,103.0,101.0,13.3,1505.2,326.0,-0.7,1.8,2470.843,13.28,0.042,98.1
2022-04-09T06:13:03,42.805,6.029,0.024,-0.005,0.025,104.0,102.0,100.0,13.3,1505.2,328.9,-0.8,1.8,2470.817,13.28,0.024,101.8
2022-04-09T06:16:03,42.805,6.029,0.027,-0.022,-0.044,102.0,102.0,101.0,13.4,1505.2,324.9,-0.7,1.8,2470.808,13.28,0.034,129.2
2022-04-09T06:19:03,42.805,6.029,0.034,-0.013,-0.002,101.0,103.0,100.0,13.4,1505.2,327.6,-0.7,1.8,2470.796,13.28,0.036,110.9
2022-04-09T06:22:03,42.805,6.029,0.051,-0.003,0.036,101.0,103.0,100.0,13.4,1505.2,324.7,-0.7,1.8,2470.788,13.28,0.051,93.4
2022-04-09T06:25:03,42.805,6.029,0.034,-0.011,0.012,101.0,103.0,101.0,13.4,1505.2,332.9,-0.8,1.8,2470.829,13.28,0.035,107.9
2022-04-09T06:28:03,42.805,6.029,0.026,-0.003,0.001,103.0,101.0,102.0,13.3,1505.2,328.6,-0.8,1.8,2470.806,13.28,0.026,96.6
2022-04-09T06:31:03,42.805,6.029,0.001,-0.007,0.004,102.0,102.0,101.0,13.4,1505.2,328.0,-0.8,1.8,2470.818,13.28,0.007,171.9
2022-04-09T06:34:03,42.805,6.029,0.016,-0.011,0.001,103.0,102.0,100.0,13.4,1505.2,327.4,-0.8,1.8,2470.79,13.28,0.019,124.5
2022-04-09T06:37:03,42.805,6.029,0.033,-0.012,0.004,102.0,103.0,100.0,13.4,1505.2,327.0,-0.8,1.8,2470.815,13.28,0.035,110.0
2022-04-09T06:40:03,42.805,6.029,0.024,-0.013,0.001,102.0,102.0,100.0,13.4,1505.2,328.8,-0.8,1.8,2470.821,13.28,0.027,118.4
2022-04-09T06:43:03,42.805,6.029,0.026,0.013,0.017,101.0,103.0,100.0,13.4,1505.2,327.2,-0.7,1.8,2470.753,13.28,0.029,63.4
2022-04-09T06:46:03,42.805,6.029,0.023,-0.021,0.019,102.0,103.0,100.0,13.3,1505.2,323.5,-0.8,1.8,2470.822,13.28,0.031,132.4
2022-04-09T06:49:03,42.805,6.029,0.027,-0.029,0.016,101.0,102.0,100.0,13.3,1505.2,323.3,-0.7,1.8,2470.792,13.28,0.039,137.0
2022-04-09T06:52:03,42.805,6.029,0.022,0.0,0.042,103.0,103.0,100.0,13.4,1505.2,324.9,-0.8,1.8,2470.771,13.28,0.022,90.0
2022-04-09T06:55:03,42.805,6.029,0.037,-0.032,-0.004,103.0,102.0,100.0,13.4,1505.2,327.8,-0.7,1.8,2470.805,13.28,0.048,130.9
2022-04-09T06:58:03,42.805,6.029,0.009,-0.004,0.0,102.0,102.0,101.0,13.4,1505.2,329.0,-0.8,1.8,2470.811,13.28,0.009,114.0
2022-04-09T07:04:03,42.805,6.029,-0.014,-0.005,0.015,101.0,106.0,100.0,13.4,1505.2,326.8,-0.8,1.8,2470.836,13.28,0.014,250.4
2022-04-09T07:07:03,42.805,6.029,0.031,-0.005,-0.003,102.0,102.0,100.0,13.4,1505.2,324.3,-0.8,1.8,2470.778,13.28,0.031,99.2
2022-04-09T07:10:03,42.805,6.029,0.018,-0.014,-0.013,102.0,102.0,100.0,13.4,1505.2,326.5,-0.7,1.8,2470.78,13.28,0.022,127.9
2022-04-09T07:13:03,42.805,6.029,0.008,-0.01,0.015,101.0,102.0,100.0,13.3,1505.2,328.8,-0.7,1.8,2470.791,13.28,0.012,141.3
2022-04-09T07:16:03,42.805,6.029,0.009,-0.013,0.005,100.0,103.0,100.0,13.4,1505.2,330.1,-0.7,1.8,2470.777,13.28,0.015,145.3
2022-04-09T07:19:03,42.805,6.029,0.036,-0.01,0.025,101.0,103.0,100.0,13.4,1505.2,328.7,-0.7,1.8,2470.788,13.28,0.037,105.5
2022-04-09T07:22:03,42.805,6.029,0.034,0.0,0.024,101.0,102.0,101.0,13.4,1505.2,328.0,-0.8,1.8,2470.786,13.28,0.034,90.0
2022-04-09T07:25:03,42.805,6.029,0.017,-0.006,0.024,101.0,102.0,101.0,13.3,1505.2,329.5,-0.8,1.8,2470.773,13.28,0.018,109.4
2022-04-09T07:28:03,42.805,6.029,0.032,-0.01,0.006,101.0,102.0,101.0,13.4,1505.2,331.0,-0.8,1.8,2470.754,13.28,0.033,107.4
2022-04-09T07:31:03,42.805,6.029,0.016,-0.021,0.01,101.0,102.0,101.0,13.4,1505.2,332.5,-0.8,1.8,2470.811,13.28,0.026,142.7
2022-04-09T07:34:03,42.805,6.029,0.025,0.012,-0.002,102.0,105.0,100.0,13.4,1505.2,325.7,-0.8,1.8,2470.792,13.28,0.027,64.4
2022-04-09T07:37:03,42.805,6.029,-0.001,-0.005,-0.014,102.0,102.0,101.0,13.4,1505.2,328.6,-0.8,1.8,2470.767,13.28,0.005,191.3
2022-04-09T07:40:03,42.805,6.029,0.03,-0.013,-0.006,100.0,102.0,101.0,13.3,1505.2,323.3,-0.8,1.9,2470.796,13.28,0.032,113.4
2022-04-09T07:43:03,42.805,6.029,0.015,0.001,0.012,102.0,103.0,101.0,13.4,1505.2,325.8,-0.8,1.8,2470.797,13.28,0.015,86.2
2022-04-09T07:46:03,42.805,6.029,0.028,-0.005,0.001,101.0,103.0,101.0,13.4,1505.2,323.8,-0.7,1.8,2470.764,13.28,0.028,100.1
2022-04-09T07:49:03,42.805,6.029,0.017,-0.011,-0.007,101.0,103.0,100.0,13.3,1505.2,324.7,-0.7,1.8,2470.791,13.28,0.02,122.9
2022-04-09T07:52:03,42.805,6.029,0.04,0.009,0.033,101.0,103.0,100.0,13.4,1505.2,322.3,-0.8,1.8,2470.736,13.28,0.041,77.3
2022-04-09T07:55:03,42.805,6.029,0.023,-0.014,-0.008,101.0,104.0,100.0,13.4,1505.2,325.0,-0.7,1.8,2470.764,13.28,0.026,121.3
2022-04-09T07:58:03,42.805,6.029,0.028,-0.017,-0.001,102.0,103.0,100.0,13.4,1505.2,328.3,-0.7,1.8,2470.745,13.28,0.032,121.3
2022-04-09T08:04:03,42.805,6.029,0.046,-0.009,0.012,101.0,103.0,101.0,13.4,1505.2,324.5,-0.7,1.8,2470.78,13.28,0.046,101.1
2022-04-09T08:07:03,42.805,6.029,0.019,-0.004,0.024,101.0,102.0,101.0,13.3,1505.2,325.2,-0.7,1.8,2470.813,13.28,0.019,101.9
2022-04-09T08:10:03,42.805,6.029,0.03,-0.014,0.049,101.0,104.0,99.0,13.4,1505.2,330.1,-0.8,1.8,2470.758,13.28,0.033,115.0
2022-04-09T08:13:03,42.805,6.029,0.022,-0.026,-0.002,101.0,103.0,101.0,13.4,1505.2,322.3,-0.8,1.8,2470.785,13.28,0.034,139.8
2022-04-09T08:16:03,42.805,6.029,0.028,-0.012,0.011,103.0,103.0,100.0,13.4,1505.2,323.7,-0.8,1.8,2470.78,13.28,0.03,113.2
2022-04-09T08:19:03,42.805,6.029,0.025,-0.023,0.01,100.0,102.0,101.0,13.4,1505.2,331.9,-0.7,1.8,2470.821,13.28,0.033,132.6
2022-04-09T08:22:03,42.805,6.029,0.055,-0.02,-0.006,102.0,104.0,101.0,13.3,1505.2,322.9,-0.7,1.8,2470.782,13.28,0.058,110.0
2022-04-09T08:25:03,42.805,6.029,0.032,-0.01,0.022,101.0,104.0,101.0,13.4,1505.2,331.0,-0.8,1.8,2470.809,13.28,0.033,107.4
2022-04-09T08:28:03,42.805,6.029,0.024,-0.003,0.023,102.0,102.0,100.0,13.3,1505.2,327.0,-0.8,1.8,2470.823,13.28,0.024,97.1
2022-04-09T08:31:03,42.805,6.029,0.05,-0.015,0.004,102.0,105.0,101.0,13.4,1505.2,331.1,-0.8,1.9,2470.796,13.28,0.052,106.7
2022-04-09T08:34:03,42.805,6.029,0.033,-0.024,0.022,102.0,104.0,101.0,13.4,1505.2,327.4,-0.7,1.8,2470.793,13.28,0.04,126.0
2022-04-09T08:37:03,42.805,6.029,0.008,-0.001,-0.015,102.0,103.0,100.0,13.4,1505.2,328.7,-0.7,1.8,2470.788,13.28,0.008,97.1
2022-04-09T08:40:03,42.805,6.029,0.026,-0.01,0.001,102.0,104.0,101.0,13.4,1505.2,324.3,-0.7,1.8,2470.76,13.28,0.027,111.0
2022-04-09T08:43:03,42.805,6.029,0.029,-0.024,-0.05,102.0,104.0,101.0,13.3,1505.2,329.0,-0.7,1.9,2470.75,13.28,0.037,129.6
2022-04-09T08:46:03,42.805,6.029,0.042,-0.031,-0.006,103.0,102.0,100.0,13.4,1505.2,327.7,-0.7,1.8,2470.78,13.28,0.052,126.4
2022-04-09T08:49:03,42.805,6.029,0.031,-0.025,0.005,102.0,104.0,100.0,13.4,1505.2,328.2,-0.8,1.8,2470.778,13.28,0.039,128.9
2022-04-09T08:52:03,42.805,6.029,0.05,-0.033,0.015,102.0,103.0,100.0,13.3,1505.2,324.8,-0.7,1.8,2470.761,13.28,0.059,123.4
2022-04-09T08:55:03,42.805,6.029,0.038,-0.011,0.011,102.0,103.0,100.0,13.3,1505.2,326.6,-0.8,1.8,2470.787,13.28,0.039,106.1
2022-04-09T08:58:03,42.805,6.029,0.046,-0.015,0.026,101.0,103.0,101.0,13.4,1505.2,330.1,-0.8,1.8,2470.77,13.28,0.048,108.1
2022-04-09T09:01:03,42.805,6.029,0.012,-0.017,0.02,102.0,103.0,101.0,13.4,1505.2,329.4,-0.8,1.8,2470.8,13.28,0.02,144.8
2022-04-09T09:04:03,42.805,6.029,0.02,-0.009,0.017,103.0,102.0,101.0,13.3,1505.2,328.0,-0.7,1.8,2470.758,13.28,0.021,114.2
2022-04-09T09:07:03,42.805,6.029,0.046,-0.008,0.018,102.0,103.0,100.0,13.3,1505.2,322.6,-0.8,1.8,2470.781,13.28,0.046,99.9
2022-04-09T09:10:03,42.805,6.029,0.029,-0.003,0.007,102.0,103.0,101.0,13.4,1505.2,326.2,-0.7,1.8,2470.801,13.28,0.029,95.9
2022-04-09T09:13:03,42.805,6.029,0.062,-0.006,0.024,103.0,103.0,100.0,13.4,1505.2,326.2,-0.7,1.8,2470.764,13.28,0.062,95.5
2022-04-09T09:16:03,42.805,6.029,0.047,-0.038,-0.023,101.0,103.0,101.0,13.4,1505.2,330.7,-0.7,1.8,2470.794,13.28,0.06,129.0
2022-04-09T09:19:03,42.805,6.029,0.027,-0.009,0.016,102.0,101.0,101.0,13.3,1505.2,330.7,-0.8,1.8,2470.773,13.28,0.028,108.4
2022-04-09T09:22:03,42.805,6.029,0.038,-0.002,0.019,102.0,103.0,101.0,13.3,1505.2,331.2,-0.8,1.8,2470.761,13.28,0.038,93.0
2022-04-09T09:25:03,42.805,6.029,0.011,-0.019,0.002,101.0,103.0,102.0,13.4,1505.2,329.3,-0.7,1.8,2470.766,13.28,0.021,149.9
2022-04-09T09:28:03,42.805,6.029,0.016,0.01,0.002,102.0,103.0,101.0,13.3,1505.2,326.1,-0.8,1.8,2470.776,13.28,0.018,58.0
2022-04-09T09:31:03,42.805,6.029,0.016,-0.02,0.011,102.0,102.0,100.0,13.3,1505.2,327.3,-0.7,1.8,2470.763,13.28,0.025,141.3
2022-04-09T09:34:03,42.805,6.029,0.013,-0.012,0.018,102.0,102.0,101.0,13.4,1505.2,329.0,-0.8,1.8,2470.808,13.28,0.017,132.7
2022-04-09T09:37:03,42.805,6.029,0.018,0.017,0.02,102.0,103.0,100.0,13.3,1505.2,326.9,-0.8,1.8,2470.778,13.28,0.024,46.6
2022-04-09T09:40:03,42.805,6.029,0.007,-0.016,-0.035,101.0,102.0,101.0,13.4,1505.2,330.4,-0.7,1.9,2470.797,13.28,0.017,156.4
2022-04-09T09:43:03,42.805,6.029,0.069,-0.001,0.049,102.0,103.0,101.0,13.3,1505.2,330.2,-0.8,1.8,2470.826,13.28,0.069,90.8
2022-04-09T09:46:03,42.805,6.029,0.048,-0.006,0.012,101.0,103.0,101.0,13.3,1505.2,322.0,-0.7,1.8,2470.767,13.28,0.048,97.1
2022-04-09T09:49:03,42.805,6.029,0.03,-0.008,0.029,101.0,103.0,100.0,13.4,1505.2,331.8,-0.8,1.8,2470.785,13.28,0.031,104.9
2022-04-09T09:52:03,42.805,6.029,0.039,-0.003,0.0,102.0,104.0,100.0,13.4,1505.2,324.6,-0.8,1.8,2470.773,13.28,0.039,94.4
2022-04-09T09:55:03,42.805,6.029,0.045,-0.009,0.022,102.0,104.0,100.0,13.3,1505.2,333.0,-0.8,1.8,2470.803,13.28,0.045,101.3